Location: Unspecified
(43.8044°N, 11.0278°E)
Time: 13:06:53
(UTC+02:00)

Resurs 1-4 Rocket - Visible Passes

Search period start: 30 July 2014 00:00
Search period end: 09 August 2014 00:00
Orbit: 800 x 815 km, 98.3° (Epoch: 29 July)

Date Brightness Start Highest point End Pass type
(mag) Time Alt. Az. Time Alt. Az. Time Alt. Az.
30 Jul 3.3 04:59:00 10° NNE 05:04:00 42° E 05:08:57 10° S visible
31 Jul 4.1 04:35:03 10° NE 04:39:25 26° E 04:43:45 10° SSE visible
01 Aug 4.6 04:11:37 10° NE 04:14:45 16° E 04:17:52 10° SE visible
02 Aug 2.4 05:25:27 10° NNE 05:30:44 74° ESE 05:35:58 10° S visible
03 Aug 3.2 05:01:13 10° NNE 05:06:15 45° E 05:11:15 10° S visible
04 Aug 4.0 04:37:14 10° NE 04:41:41 27° E 04:46:06 10° SSE visible
05 Aug 4.6 04:13:42 10° NE 04:17:02 17° E 04:20:20 10° SE visible
06 Aug 2.3 05:27:41 10° NNE 05:32:58 79° ESE 05:38:13 10° S visible
07 Aug 3.1 05:03:25 10° NNE 05:08:30 48° E 05:13:33 10° S visible
08 Aug 3.9 04:39:24 10° NE 04:43:57 29° E 04:48:28 10° SSE visible
